Regional Weather Roundup
Issued by NWS Charleston, SC

Current Version | Previous Version | Text Only | Print | Product List | Glossary Off
Versions: 1 2 3 4 5 6 7 8 9 10 11 12 13 14 15 16 17 18 19 20 21 22 23 24 25 26 27 28 29 30 31 32 33 34 35 36 37 38 39 40 41 42 43 44 45 46 47 48 49 50

000
ASUS42 KCHS 271827
RWRCHS

REGIONAL WEATHER ROUNDUP
NATIONAL WEATHER SERVICE CHARLESTON SC
200 PM EDT TUE JUN 27 2017

NOTE: "FAIR" INDICATES FEW OR NO CLOUDS BELOW 12,000 FEET WITH NO
SIGNIFICANT WEATHER AND/OR OBSTRUCTIONS TO VISIBILITY.

NOT ALL STATIONS ARE QUALITY CONTROLLED. USE DATA WITH CAUTION...
ESPECIALLY DEWPOINT OBSERVATIONS.

SCZ027-030-031-034>040-042>050-271900-
...SOUTHEAST SOUTH CAROLINA...

CITY           SKY/WX    TMP DP  RH WIND       PRES   REMARKS
N CHARLESTON   MOSUNNY   87  63  44 NE8       30.02F
6HR MIN TEMP:  75; 6HR MAX TEMP:  87;

WATERFRONT PRK   N/A     85  68  56 SE8       30.02F
JOHNS ISLAND   FAIR      86  68  54 E8        30.02F
PINOPOLIS        N/A     86  61  42 CALM      29.97F
MONCKS CORNER  FAIR      84  52  32 NW6       30.02F
SUMMERVILLE    FAIR      86  63  45 N5        30.03F
BEAUFORT MCAS  CLOUDY    86  69  56 E8        30.02F HX  90
6HR MIN TEMP:  77; 6HR MAX TEMP:  87;

BEAUFORT ARPT  FAIR      82  68  61 E6        30.02F
HILTON HEAD IS DRIZZLE   82  70  65 E8        30.03F
WALTERBORO     CLOUDY    84  63  48 N3        30.03F
ALLENDALE      FAIR      86  63  45 CALM      30.02S

...SOUTHERN MIDLANDS AND PEE DEE...

CITY           SKY/WX    TMP DP  RH WIND       PRES   REMARKS
GEORGETOWN     FAIR      84  64  51 E6        30.04F
KINGSTREE      FAIR      84  59  42 CALM      30.03F
ORANGEBURG     PTSUNNY   84  60  44 SE3       30.03F
BARNWELL       CLOUDY    88  63  42 VRB5      30.03S
AIKEN          FAIR      82  59  44 N6        30.09S
MANNING        FAIR      82  63  51 SW12G18   30.02F
COLUMBIA       CLOUDY    86  60  41 NE8       30.04F
6HR MIN TEMP:  70; 6HR MAX TEMP:  86;

SUMTER         NOT AVBL
FLORENCE       PTSUNNY   85  62  46 N10       30.03F
6HR MIN TEMP:  70; 6HR MAX TEMP:  87;

MYRTLE BEACH   MOSUNNY   82  66  57 SE12      30.04F
N MYRTLE BEACH CLOUDY    83  67  58 S8        30.03S
6HR MIN TEMP:  72; 6HR MAX TEMP:  85;


$$

GAZ063-065-086>088-099>101-113>116-118-119-134>141-150-271900-
...SOUTHEAST GEORGIA...

CITY           SKY/WX    TMP DP  RH WIND       PRES   REMARKS
SAVANNAH ARPT  LGT RAIN  76  71  85 E7        30.04R
6HR MIN TEMP:  75; 6HR MAX TEMP:  86; 6HR PCP:  0.07;

HUNTER AAF     CLOUDY    81  72  74 NE3       30.00
FORT STEWART   HVY RAIN  73  70  88 NE14G29   30.00S VSB 1/4
6HR MIN TEMP:  75; 6HR MAX TEMP:  87; 6HR PCP:  0.01;

STATESBORO     CLOUDY    87  67  51 NE5       30.03S
SYLVANIA       CLOUDY    87  69  55 NE3       30.04F HX  91
CLAXTON        FAIR      86  68  56 N7        30.02S

...CSRA...CENTRAL AND FAR SOUTHEAST GEORGIA...

CITY           SKY/WX    TMP DP  RH WIND       PRES   REMARKS
THOMSON        CLOUDY    84  59  43 NE7       30.11S
AUGUSTA-BUSH   MOSUNNY   89  60  37 NE8       30.03F
6HR MIN TEMP:  71; 6HR MAX TEMP:  89;

AUGUSTA-DANIEL MOSUNNY   88  55  32 VRB3      30.05F
SWAINSBORO     FAIR      84  64  51 NE5       30.05F
VIDALIA        MOSUNNY   86  68  54 NE6       30.03F
EASTMAN        FAIR      86  52  30 NE8       30.07S
HAZLEHURST     FAIR      88  72  59 N9        30.01F HX  95
ALMA           MOSUNNY   87  71  58 NE6       30.01F HX  93
6HR MIN TEMP:  73; 6HR MAX TEMP:  88;

WAYCROSS       PTSUNNY   88  75  65 N6        30.00F HX  98
JESUP          LGT RAIN  82  72  69 CALM      30.01F
BAXLEY         FAIR      88  73  62 N9        30.00F HX  96
BRUNSWICK      PTSUNNY   84  75  74 E13G18    30.02F HX  92
SAINT SIMONS   CLOUDY    81  75  82 E10       30.01F
6HR MIN TEMP:  75; 6HR MAX TEMP:  84; 6HR PCP:  0.58;


$$

SCZ027-028-034-036>038-045-046-048>050-GAZ119-141-271900-
...LAKE AND SUPPLEMENTAL COASTAL OBSERVATIONS...

STATION/POSITION TIME  TEMP    WIND        PRES    WAVE   SWELL
                       AIR SEA DIR/SP/G            HT/PER HT/PER/DIR
                 (UTC) (F)     (DEG/KT/KT) (MB)    (FT/S) (FT/S/D)
WINYAH BAY       1730   81     140/  6     1017.0S
LAKE MURRAY      1750   82      50/  1/  3 1016.3F
ACE BASIN NERRS  1730   87      70/  3     1017.0S
FORT PULASKI     1800   81 83   70/ 10/ 12 1017.0
SAPELO ISLAND    1800   79      50/  5     1016.0

$$

ANZ835-935-AMZ111-154-330-350-352-354-370-450-454-472-271900-
...C-MAN AND BUOY OBSERVATIONS...

STATION/POSITION TIME  TEMP    WIND        PRES    WAVE   SWELL
                       AIR SEA DIR/SP/G            HT/PER HT/PER/DIR
                 (UTC) (F)     (DEG/KT/KT) (MB)    (FT/S) (FT/S/D)
BUOY 41004       1810   80 81   50/  8/ 10 1016.6
BUOY 41008       1750   80 82   50/ 12/ 16 1016.0F   1/ 8   2/120/ 8
FOLLY BEACH CMAN 1800   83      80/  7/  8 1017.5F
CAPERS NEARSHORE 1808   87 83   90/  6/  8 1016.9F
FRIPP NEARSHORE  1808   81 83   80/  8/ 12 1016.3F


STATION/POSITION TIME  TEMP    WIND        PRES    WAVE   SWELL
                       AIR SEA DIR/SP/G            HT/PER HT/PER/DIR
                 (UTC) (F)     (DEG/KT/KT) (MB)    (FT/S) (FT/S/D)
5E ST. MARYS GA  1800      80                N/A     2/ 5
FRYING PAN BUOY  1810   80 81   10/  4/  6 1016.6
BUOY 41025       1750   79 81   10/  4/  4 1016.4F   2/ 7   2/ 70/ 7
CAPE LOOKOUT NC  1800   80     160/  7/  8 1016.4F
BUOY 41002       1750   77 80  310/ 10/ 12 1017.0F   3/ 5   3/220/ 5
BUOY 41010       1810   83 84  250/ 12/ 14 1016.0
ST AUGUSTINE FL  1800   79 79   40/ 12/ 13 1015.9F


$$




USA.gov is the U.S. government's official web portal to all federal, state and local government web resources and services.